Terminal Aerodrome Forecast
Issued by NWS Denver/Boulder, CO

Home | Current Version | Previous Version | Text Only | Print | Product List | Glossary On
Versions: 1 2 3 4 5 6 7 8 9 10 11 12 13 14 15 16 17 18 19 20 21 22 23 24 25 26 27 28 29 30 31 32 33 34 35 36
000
FTUS45 KBOU 201850 AAA
TAFDEN
TAF AMD
KDEN 201850Z 2019/2124 03009KT P6SM SCT080 SCT130
     FM202100 03011KT P6SM VCSH SCT080 BKN120
     FM210200 33008KT P6SM FEW080 SCT120 BKN200
     FM210400 28007KT P6SM FEW140 SCT220
     FM210900 01010KT P6SM FEW060 SCT080
     FM211300 03009KT P6SM SCT035 BKN050
     FM211700 09008KT P6SM FEW050 SCT090
     FM212100 11012KT P6SM SCT090 BKN150=

USA.gov is the U.S. government's official web portal to all federal, state and local government web resources and services.